Showing default

QIANFAN-40, 62241

Orbit data source: Space-Track

QIANFAN-40, 62241 is a Chinese payload satellite in LEO that was launched on Thu, 05 Dec 2024 UTC via a CHANG ZHENG 6A launch vehicle from the Taiyaun Space Center, China (TSC). Payload-class satellites include a variety of spacecraft equipped with specific instruments for various scientific and technological missions. These include communications satellites like Starlink; space stations such as the ISS; scientific satellites like the Hubble; Earth observation satellites from companies like Planet Labs, Umbra, and HawkEye 360; GPS; miniature CubeSats for education and research; and military/defense satellites.

Loading next visibility...
Identifier
62241, 2024-232E
Orbit
LEO
Country
Flag of CNCN / PRC
Related business
Manufacturer
SECM
Mission
Operational Commercial Communications
Bus & Motor
QIANFAN, Unknown motor
Mass
267 kg wet, ~267 kg dry
Launch date (UTC)
2024-12-05 (2 years ago)
Launch vehicle
CHANG ZHENG 6A
Launch site
Taiyaun Space Center, China (TSC)
Object type
Payload
Rocket body
Debris
Shape & HBR
Box + 1 Pan, 5.0 m
Radar Cross Section
13.200 m², Large (>1 m²)

Expand to show TLE details & history
Last TLE update: 9 hours ago

TLE from 9 hours ago
0 QIANFAN-40
1 62241U 24232E   26246.82537599  .00000116  00000-0  16008-3 0  9992
2 62241  89.0171  14.2924 0014786 151.2471 208.9499 13.51026652135384
Epoch: 2026-09-03T19:48Z
TLE epoch observation values (Epoch: 2026-09-03T19:48:32.485Z)
Latitude
0.00005°
Longitude
94.19905°
Altitude
1,081.077 km
Speed
7.307 km/s
True Right ascension
00h 57m 10s
True Declination
0° 00' 00"
Sunlit
Object was in full shadow at epoch
Visualization orbit readout
Latitude
Unknown
Longitude
Unknown
Altitude
Unknown
Speed
Unknown
Apparent Right ascension
Unknown
Apparent Declination
Unknown
Sunlit
N/A
Visualization observer readout
Local Sidereal Time
20:53:39
Azimuth
Unknown
Elevation
Unknown
Doppler factor
Unknown
Orbital elements
Apogee altitude
1,076.541 km
Perigee altitude
1,054.528 km
Semi-major axis
7,443.672 km
Eccentricity
0.00148
Inclination
89.0171°
RAAN
14.2924°
Arg. of periapsis
151.2471°
True anomaly
208.86802°
Mean anomaly
208.9499°
Eccentric anomaly
208.90895°
Mean motion
3.37958 °/min
Orbital period
106.52 mins
BSTAR
0.00016008
Loading maneuver chart data...
Computing Atmospheric mass density...
Loading historical data...
Loading historical data...
Loading historical data...
Loading historical data...
Loading historical data...
Loading historical data...
Loading historical data...

Documentation

Showing up to 5 results
|